Temp
13 13 13 13 13 13 13 14 14 14 14 14 13 13 12 12 11 11 10 10 10 10 9 9 9 9 8 8 8 8 8 8 7 7 7 7 6 6 6 6 6 5 5 5 5 5 5 5 4 4 4 4 4 4 4 3 3 3 3 3 3 3 3 2 2 2 2 2 2
13 13 13 13 13 13 14 14 14 14 14 14 13 13 12 12 11 10 10 10 10 10 9 9 9 8 8 8 8 8 8 7 7 7 7 6 6 6 6 5 5 5 5 5 5 5 5 4 4 4 4 4 4 4 4 3 3 3 3 3 3 3 3 2 2 2 2 2 2
13 13 13 13 13 14 14 14 14 14 13 13 13 12 12 11 11 10 10 10 9 9 9 9 8 8 8 8 8 8 7 7 7 7 6 6 6 5 5 5 5 5 5 5 5 4 4 4 4 4 4 4 4 4 4 3 3 3 3 3 3 3 2 2 2 2 2 2 2
13 13 13 13 14 14 14 14 14 13 13 13 12 11 11 11 10 10 10 9 9 9 9 8 8 8 8 8 8 8 7 7 7 6 6 6 5 5 5 5 5 5 5 4 4 4 4 4 4 4 4 4 4 4 3 3 3 3 3 3 3 3 2 2 2 2 2 2 2
13 13 13 14 14 14 15 14 14 13 13 12 11 11 10 10 10 10 9 9 9 9 8 8 8 8 8 8 8 7 7 7 6 6 6 5 5 5 5 5 4 4 4 4 4 4 4 4 4 4 4 4 4 3 3 3 3 3 3 3 3 2 2 2 2 2 2 2 2
13 13 14 14 14 14 14 14 14 13 12 12 11 10 10 10 10 9 9 9 9 8 8 8 8 8 8 7 7 7 7 6 6 6 5 5 5 5 4 4 4 4 4 4 4 4 4 4 4 4 4 3 3 3 3 3 3 3 3 3 2 2 2 2 2 2 2 2 2
13 13 13 14 14 14 14 14 13 12 12 11 11 10 10 10 9 9 9 9 8 8 8 8 8 7 7 7 7 7 6 6 6 5 5 5 5 4 4 4 4 4 4 4 4 4 4 4 4 4 3 3 3 3 3 3 3 3 3 3 2 2 2 2 2 2 2 2 1
13 13 14 14 14 14 14 13 13 12 11 11 11 10 10 10 9 9 9 8 8 8 8 8 7 7 7 7 7 6 6 6 5 5 5 5 5 4 4 4 4 4 4 4 4 4 4 4 4 3 3 3 3 3 3 3 3 3 2 2 2 2 2 2 2 2 2 1 1
13 13 13 13 13 13 13 13 12 12 11 11 10 10 10 9 9 9 9 8 8 8 8 7 7 7 7 7 6 6 6 5 5 5 5 4 4 4 4 4 4 4 4 4 4 4 4 3 3 3 3 3 3 3 3 3 2 2 2 2 2 2 2 2 2 1 1 1 1
12 13 13 13 13 13 12 12 11 11 11 10 10 10 9 9 9 9 8 8 8 7 7 7 7 7 7 6 6 6 5 5 5 5 4 4 4 4 4 4 4 4 4 4 4 3 3 3 3 3 3 3 3 3 3 2 2 2 2 2 2 2 2 1 1 1 1 1 1
12 12 12 12 12 12 12 11 11 11 10 10 9 9 9 9 8 8 8 8 7 7 7 7 7 6 6 6 6 5 5 5 5 4 4 4 4 4 4 4 4 4 4 3 3 3 3 3 3 3 3 3 3 3 2 2 2 2 2 2 1 1 1 1 1 1 1 1 1
12 12 12 12 12 11 11 11 10 10 10 10 9 9 8 8 8 8 8 7 7 7 7 6 6 6 6 6 5 5 5 5 4 4 4 4 4 4 4 4 4 4 3 3 3 3 3 3 3 3 3 3 3 2 2 2 2 2 2 1 1 1 1 1 1 1 1 1 1
12 12 11 11 11 11 11 10 10 10 9 9 9 8 8 8 8 7 7 7 7 7 6 6 6 6 6 5 5 5 5 4 4 4 4 4 4 4 4 4 3 3 3 3 3 3 3 3 3 3 3 3 2 2 2 2 2 1 1 1 1 1 1 1 1 1 1 1 0
11 11 11 11 10 10 10 10 10 9 9 9 8 8 8 7 7 7 7 7 7 6 6 6 6 6 5 5 5 5 4 4 4 4 4 4 4 4 4 3 3 3 3 3 3 3 3 3 3 2 2 2 2 2 2 1 1 1 1 1 1 1 1 1 1 1 0 0 0
11 11 10 10 10 10 10 10 9 9 9 8 8 8 7 7 7 7 7 7 6 6 6 6 6 5 5 5 5 4 4 4 4 4 4 4 4 3 3 3 3 3 3 3 3 3 3 2 2 2 2 2 2 2 1 1 1 1 1 1 1 1 1 0 0 0 0 0 -0
10 10 10 10 10 10 10 9 9 9 8 8 7 7 7 7 6 6 6 6 6 6 6 6 5 5 5 5 4 4 4 4 4 4 4 4 3 3 3 3 3 3 3 3 3 3 2 2 2 2 2 2 1 1 1 1 1 1 1 1 1 0 0 0 0 -0 -0 -0 -0
10 10 10 10 10 9 9 9 9 8 8 7 7 7 7 6 6 6 6 6 6 6 6 5 5 5 5 4 4 4 4 4 4 4 4 3 3 3 3 3 3 3 3 3 3 3 2 2 2 2 2 1 1 1 1 1 1 1 1 1 0 0 0 -0 -0 -0 -0 -0 -1
9 9 9 9 9 9 9 8 8 8 7 7 7 6 6 6 6 6 6 6 6 6 5 5 5 5 4 4 4 4 4 4 4 3 3 3 3 3 3 3 2 2 2 2 2 2 2 2 2 2 1 1 1 1 1 1 1 1 1 0 0 0 -0 -0 -0 -1 -1 -1 -1
9 9 9 9 9 9 8 8 8 7 7 7 6 6 6 6 6 6 6 6 5 5 5 5 5 4 4 4 4 4 4 4 3 3 3 3 3 2 2 2 2 2 2 2 2 2 2 2 2 2 1 1 1 1 1 1 1 0 0 0 -0 -0 -0 -1 -1 -1 -1 -1 -1
9 9 9 9 9 8 8 8 7 7 7 6 6 6 6 6 6 6 6 5 5 5 5 5 4 4 4 4 4 4 3 3 3 3 3 2 2 2 2 2 2 2 2 2 2 2 2 2 2 1 1 1 1 1 1 1 0 0 0 -0 -0 -0 -1 -1 -1 -1 -1 -1 -1
9 9 8 8 8 8 7 7 7 6 6 6 6 6 6 5 5 5 5 5 5 5 5 4 4 4 4 4 4 3 3 3 3 3 2 2 2 2 2 2 2 2 2 2 2 2 2 2 1 1 1 1 1 1 1 0 0 0 -0 -0 -1 -1 -1 -1 -1 -1 -1 -1 -1
8 8 8 8 8 7 7 7 6 6 6 6 6 5 5 5 5 5 5 5 5 5 4 4 4 4 4 4 3 3 3 3 2 2 2 2 2 2 2 2 2 2 2 2 2 2 2 1 1 1 1 1 1 1 0 0 0 -0 -0 -1 -1 -1 -1 -1 -1 -1 -1 -1 -1
8 8 8 7 7 7 6 6 6 6 6 5 5 5 5 5 5 5 5 5 4 4 4 4 4 4 4 3 3 3 3 3 2 2 2 2 2 2 2 2 2 2 2 2 2 2 1 1 1 1 1 1 1 1 0 0 -0 -0 -1 -1 -1 -1 -1 -1 -2 -2 -2 -2 -2
8 7 7 7 6 6 6 6 6 5 5 5 5 5 5 5 5 4 4 4 4 4 4 4 4 4 3 3 3 3 3 3 3 2 2 2 2 2 2 2 2 2 2 2 2 1 1 1 1 1 1 1 1 0 0 0 -0 -0 -1 -1 -1 -1 -2 -2 -2 -2 -2 -2 -2
7 7 7 6 6 6 6 5 5 5 5 5 5 5 5 4 4 4 4 4 4 4 4 4 4 3 3 3 3 3 3 3 3 2 2 2 2 2 2 2 1 1 1 1 1 1 0 0 1 1 1 1 0 0 0 -0 -0 -1 -1 -1 -1 -2 -2 -2 -2 -2 -2 -2 -2
7 6 6 6 6 5 5 5 5 5 5 5 4 4 4 4 4 4 4 4 4 4 4 4 3 3 3 3 3 2 2 2 2 2 2 2 2 2 2 1 1 1 1 1 1 1 0 0 1 1 1 0 0 0 0 -0 -1 -1 -1 -1 -2 -2 -2 -2 -2 -2 -2 -2 -2
6 6 6 6 5 5 5 5 5 5 4 4 4 4 4 4 4 4 4 4 4 4 4 3 3 3 3 3 2 2 2 2 2 2 2 2 2 2 1 1 1 1 1 1 1 0 0 0 0 0 0 0 0 0 -0 -0 -1 -1 -1 -1 -2 -2 -2 -2 -2 -2 -2 -2 -2
6 6 5 5 5 5 5 5 5 4 4 4 4 4 4 4 4 4 4 4 4 4 4 3 3 3 3 3 2 2 2 2 2 2 2 2 1 1 1 1 1 1 1 1 0 0 -0 0 0 0 0 0 0 -0 -0 -1 -1 -1 -1 -2 -2 -2 -2 -2 -2 -2 -2 -2 -3
5 5 5 5 5 5 5 4 4 4 4 4 4 4 4 4 4 4 4 4 4 4 3 3 3 3 3 2 2 2 2 2 2 1 1 1 1 1 1 1 1 0 1 0 0 -0 -0 -0 -0 -0 -0 -0 -0 -0 -0 -1 -1 -1 -1 -2 -2 -2 -2 -2 -2 -2 -2 -2 -3
5 5 5 5 5 4 4 4 4 4 4 4 4 4 4 4 4 4 4 4 4 3 3 3 3 3 2 2 2 2 2 1 1 1 1 1 1 1 1 0 0 0 0 0 -0 -0 -1 -0 -0 -0 -0 -0 -0 -0 -1 -1 -1 -1 -1 -2 -2 -2 -2 -2 -2 -2 -2 -2 -2
5 5 5 5 4 4 4 4 4 4 4 4 4 4 4 4 4 4 4 3 3 3 3 3 3 3 2 2 2 2 2 1 1 1 1 1 1 0 0 0 0 0 0 -0 -0 -1 -1 -1 -1 -1 -0 -0 -0 -1 -1 -1 -1 -1 -2 -2 -2 -2 -2 -2 -2 -2 -2 -2 -2
5 5 5 4 4 4 4 4 4 4 4 4 4 4 4 4 4 3 3 3 3 3 3 3 3 2 2 2 2 2 1 1 1 1 0 0 0 0 0 -0 -0 -0 -0 -0 -1 -1 -1 -1 -1 -1 -1 -1 -1 -1 -1 -1 -1 -1 -2 -2 -2 -2 -2 -2 -2 -2 -2 -2 -2
5 5 4 4 4 4 4 4 4 4 4 4 4 4 4 3 3 3 3 3 3 3 2 2 2 2 2 2 2 2 1 1 1 0 0 0 -0 -0 -0 -0 -0 -0 -1 -1 -1 -1 -1 -1 -1 -1 -1 -1 -1 -1 -1 -1 -1 -2 -2 -2 -2 -2 -2 -2 -2 -2 -2 -2 -2
4 4 4 4 4 4 4 3 4 4 4 4 4 3 3 3 3 3 3 3 2 2 2 2 2 2 2 2 1 1 1 1 0 0 -0 -0 -0 -0 -0 -0 -0 -1 -1 -1 -1 -2 -2 -1 -1 -1 -1 -1 -1 -1 -1 -1 -2 -2 -2 -2 -2 -2 -2 -2 -2 -2 -2 -2 -2
4 4 4 4 4 3 3 3 3 3 4 3 3 3 3 3 3 3 3 2 2 2 2 2 2 2 1 1 1 1 1 0 0 0 -0 -0 -0 -0 -0 -0 -1 -1 -1 -1 -2 -2 -2 -2 -2 -1 -1 -1 -1 -1 -2 -2 -2 -2 -2 -2 -2 -2 -2 -2 -2 -2 -2 -2 -2
4 4 4 4 3 3 3 3 3 3 3 3 3 3 3 3 3 2 2 2 2 2 2 2 2 1 1 1 1 1 0 0 -0 -0 -0 -0 -1 -1 -1 -1 -1 -1 -1 -2 -2 -2 -2 -2 -2 -2 -1 -1 -2 -2 -2 -2 -2 -2 -2 -2 -2 -2 -2 -2 -2 -2 -2 -2 -3
4 4 4 3 3 3 3 3 3 3 3 3 3 3 2 2 2 2 2 2 2 2 2 2 1 1 1 1 1 0 -0 -0 -0 -0 -0 -1 -1 -1 -1 -1 -1 -1 -2 -2 -2 -2 -2 -2 -2 -2 -2 -2 -2 -2 -2 -2 -2 -2 -2 -2 -2 -2 -2 -2 -2 -2 -2 -3 -3
4 4 4 3 3 3 3 3 3 3 3 3 2 2 2 2 2 2 2 2 2 2 2 1 1 1 1 1 0 0 -0 -0 -1 -1 -1 -1 -1 -1 -1 -2 -2 -2 -2 -2 -2 -2 -2 -2 -2 -2 -2 -2 -2 -2 -2 -2 -2 -2 -2 -2 -2 -2 -2 -2 -2 -2 -3 -3 -3
3 4 3 3 3 3 3 3 3 3 2 2 2 2 2 2 2 2 2 2 2 2 1 1 1 1 0 0 0 0 0 -0 -0 -1 -1 -1 -1 -2 -2 -2 -2 -2 -2 -2 -2 -3 -3 -2 -2 -2 -2 -2 -2 -2 -2 -2 -2 -2 -2 -2 -2 -2 -2 -2 -2 -3 -3 -3 -3
3 3 3 3 3 3 3 3 3 2 2 2 2 2 2 2 2 1 1 1 1 1 1 1 1 0 0 0 0 0 0 -0 -0 -1 -1 -1 -2 -2 -2 -2 -2 -2 -2 -3 -3 -3 -3 -3 -2 -2 -2 -2 -2 -2 -2 -2 -2 -2 -2 -2 -2 -2 -2 -2 -3 -3 -3 -3 -3
3 3 3 3 3 3 3 2 2 2 2 2 2 2 2 2 1 1 1 1 1 1 1 1 0 0 0 -0 -0 -0 -0 -0 -1 -1 -1 -2 -2 -2 -2 -2 -2 -3 -3 -3 -3 -3 -3 -3 -2 -2 -2 -2 -2 -2 -2 -2 -2 -2 -2 -2 -2 -2 -2 -3 -3 -3 -3 -3 -3
Height
764 765 767 768 770 772 773 775 777 779 781 782 784 785 787 787 789 790 791 792 792 793 794 795 795 796 797 797 797 798 798 798 799 799 799 799 799 799 799 799 799 799 799 799 799 799 798 798 798 798 797 797 797 796 796 795 795 794 793 793 792 792 791 791 790 790 790 789 789
764 765 767 768 770 772 774 776 777 779 781 782 784 785 786 787 788 790 791 792 792 793 793 794 795 796 796 797 797 798 798 798 798 799 799 799 799 799 799 799 799 799 799 799 798 798 798 798 797 797 797 797 796 796 795 794 794 793 793 792 792 791 790 790 790 789 789 788 788
764 766 767 768 770 772 774 776 778 779 781 783 784 785 787 787 788 789 790 792 792 793 793 794 795 796 796 797 797 797 798 798 798 799 799 799 799 799 799 799 799 799 798 798 798 798 797 797 797 797 796 796 795 795 794 794 793 792 792 791 791 790 790 789 789 788 788 787 787
765 766 767 769 771 772 774 776 777 779 781 782 784 785 787 787 788 789 790 791 792 793 793 794 795 795 796 797 797 797 798 798 798 798 799 799 799 799 799 799 798 798 798 798 798 797 797 797 796 796 796 795 795 794 793 793 792 792 791 791 790 789 789 788 788 787 787 787 786
765 767 768 770 771 773 774 776 777 779 781 782 784 785 787 787 788 789 790 791 792 792 793 794 795 795 796 796 797 797 797 798 798 798 798 799 799 799 799 798 798 798 798 797 797 797 797 796 796 795 795 794 794 793 793 792 792 791 790 790 789 789 788 787 787 787 786 786 785
766 767 769 770 772 773 775 776 777 779 781 782 783 785 786 787 788 789 790 791 792 792 793 794 795 795 796 796 797 797 797 797 798 798 798 798 798 798 798 798 798 797 797 797 797 796 796 796 795 795 794 794 793 793 792 792 791 790 789 789 788 788 787 787 786 786 785 785 784
766 767 769 771 772 773 775 777 778 779 781 782 783 784 786 787 788 789 790 791 792 792 793 794 795 795 796 796 796 797 797 797 797 798 798 798 798 798 798 798 797 797 797 797 796 796 795 795 794 794 793 793 792 792 791 791 790 789 788 788 787 787 787 786 785 785 784 784 783
766 767 769 771 772 774 775 777 778 779 781 782 783 785 786 787 788 789 790 791 792 792 793 794 794 795 795 796 796 796 797 797 797 797 798 798 798 798 797 797 797 797 796 796 796 795 795 794 794 793 792 792 792 791 790 790 789 788 787 787 787 786 786 785 785 784 783 783 782
766 768 769 771 772 774 775 777 778 779 781 782 784 785 786 787 788 789 790 791 792 792 793 794 794 795 795 795 796 796 797 797 797 797 797 797 797 797 797 797 797 796 796 795 795 794 794 793 793 792 792 791 791 790 789 789 788 787 787 786 786 785 785 784 784 783 782 782 781
766 768 769 771 773 774 776 777 779 780 781 782 784 785 786 787 788 789 790 791 791 792 793 793 794 794 795 795 796 796 796 797 797 797 797 797 797 797 797 796 796 795 795 794 794 793 793 792 792 792 791 790 790 789 788 788 787 787 786 785 785 784 784 783 783 782 782 781 780
766 768 770 771 773 775 776 777 779 781 782 782 784 785 786 787 788 789 790 791 791 792 792 793 794 794 794 795 795 796 796 796 797 797 797 797 796 796 796 796 795 795 794 794 793 793 792 792 791 791 790 790 789 788 787 787 786 786 785 784 784 783 782 782 782 781 781 780 779
766 768 770 772 773 775 777 778 779 781 782 782 784 785 786 787 788 789 790 790 791 792 792 793 793 794 794 794 795 795 796 796 796 796 796 796 796 796 795 795 794 794 793 793 792 792 791 791 790 790 789 789 788 787 787 786 785 785 784 783 783 782 782 781 781 780 780 779 778
767 769 771 772 774 776 777 778 779 780 782 782 784 785 786 787 788 789 790 790 791 791 792 792 793 793 794 794 795 795 795 796 796 796 796 796 795 795 795 794 794 793 793 792 792 791 791 790 789 789 788 788 787 787 786 785 784 784 783 782 782 781 781 780 780 779 778 778 777
767 769 771 773 774 776 777 778 779 780 782 783 784 785 786 787 788 789 789 790 790 791 792 792 792 793 793 794 794 795 795 795 795 795 795 795 795 794 794 793 793 792 792 792 791 790 790 789 788 788 787 787 786 786 785 784 784 783 782 782 781 780 780 779 779 778 777 777 776
768 770 772 773 775 776 777 778 779 781 782 783 784 786 786 787 788 789 789 790 790 791 791 792 792 793 793 794 794 794 795 795 795 795 795 794 794 794 793 793 792 792 791 791 790 790 789 788 788 787 787 786 786 785 784 784 783 782 782 781 781 780 779 778 778 777 776 775 774
769 771 772 774 775 776 777 778 780 781 782 783 785 786 787 787 788 789 789 789 790 790 791 791 792 792 793 793 794 794 794 794 794 794 794 794 793 793 792 792 792 791 790 790 789 789 788 788 787 787 786 785 785 784 783 783 782 782 781 780 780 779 778 777 777 776 775 774 773
770 772 773 774 775 777 777 779 780 781 782 784 785 786 787 787 788 788 789 789 790 790 791 791 792 792 793 793 793 794 794 794 794 793 793 793 792 792 792 791 791 790 789 789 788 788 787 787 787 786 785 785 784 783 783 782 782 781 780 780 779 778 777 777 776 775 774 773 772
770 772 773 775 776 777 778 779 780 782 783 784 785 786 787 787 788 788 789 789 789 790 790 791 792 792 792 793 793 793 793 793 793 793 792 792 792 792 791 791 790 789 789 788 788 787 787 786 786 785 784 784 783 783 782 781 781 780 779 779 778 777 777 776 775 774 773 772 771
771 772 774 775 776 777 778 780 781 782 783 784 785 786 787 787 788 788 788 789 789 790 790 791 792 792 792 792 793 793 793 793 792 792 792 792 791 791 790 790 789 789 788 787 787 787 786 785 785 784 784 783 782 782 781 781 780 779 778 778 777 777 776 775 774 773 772 771 770
771 773 774 776 777 778 779 780 781 782 783 784 785 786 787 787 788 788 788 789 789 790 790 791 792 792 792 792 792 792 792 792 792 792 791 791 791 790 790 789 789 788 787 787 786 786 785 785 784 783 783 782 782 781 780 779 779 778 777 777 776 776 775 774 773 772 771 770 769
772 773 775 776 777 778 779 781 782 783 784 784 785 786 787 787 787 788 788 788 789 790 790 791 791 792 792 792 792 792 792 792 792 791 791 790 790 789 789 788 788 787 787 786 786 785 784 784 783 782 782 782 781 780 779 778 778 777 777 776 775 775 774 773 772 771 770 769 767
772 774 775 776 777 778 780 781 782 783 784 785 785 786 787 787 787 787 788 788 789 790 790 791 791 791 791 792 792 792 792 791 791 791 790 790 789 789 788 788 787 787 786 785 785 784 783 783 782 782 781 781 780 779 778 777 777 776 775 775 774 773 773 772 771 770 769 767 766
772 774 775 777 777 779 780 781 782 783 784 785 785 786 786 787 787 787 788 788 789 790 790 791 791 791 791 791 791 791 791 791 791 790 790 789 789 788 787 787 786 786 785 784 784 783 782 782 782 781 781 780 779 778 777 777 776 775 774 774 773 772 772 771 770 769 767 766 765
772 774 775 777 778 779 780 781 782 783 784 785 785 786 786 787 787 787 788 789 789 790 790 790 790 791 791 791 791 791 790 790 790 789 789 788 788 787 787 786 786 785 784 784 783 782 782 782 781 780 780 779 778 777 777 776 775 774 773 772 772 771 770 769 768 767 766 765 764
773 774 776 777 778 779 780 781 782 783 784 785 785 786 786 787 787 788 788 789 789 790 790 790 790 790 790 790 790 790 790 789 789 788 788 787 787 787 786 785 785 784 783 783 782 782 782 781 781 780 779 778 777 776 776 775 774 773 772 772 771 770 768 767 767 766 765 764 762
773 774 776 777 778 779 781 782 782 783 784 784 785 786 786 787 787 788 788 789 789 790 790 790 790 790 790 790 790 790 789 789 788 788 787 787 786 786 785 785 784 783 783 782 782 781 781 781 780 779 778 777 776 775 774 774 773 772 771 770 769 768 767 766 765 764 763 762 761
773 775 776 777 778 779 781 782 782 783 784 784 785 786 786 787 787 788 788 789 789 789 789 790 790 790 790 790 790 789 789 788 787 787 787 786 785 785 784 784 783 782 782 781 781 780 780 779 779 778 777 776 775 774 773 772 772 771 770 769 768 767 766 765 764 762 762 761 760
773 775 776 777 778 779 781 781 782 783 784 784 785 786 786 787 787 788 788 789 789 789 789 789 789 790 789 789 789 788 788 787 787 786 786 785 785 784 784 783 782 782 781 781 780 779 779 778 777 777 776 775 774 773 772 772 771 770 769 768 767 766 765 764 763 762 760 759 758
774 775 776 777 778 779 780 781 782 783 784 784 785 786 786 787 787 788 788 788 788 789 789 789 789 789 789 789 788 788 787 787 786 786 785 785 784 784 783 782 782 781 780 780 779 778 778 777 777 776 775 774 773 772 771 770 769 768 768 767 766 765 764 763 762 760 759 758 756
774 775 776 777 778 779 780 781 782 783 784 784 785 786 786 787 787 787 788 788 788 788 789 789 789 789 788 788 787 787 787 786 786 785 784 784 783 783 782 782 781 780 779 779 778 777 777 776 775 775 774 773 772 772 770 769 768 767 767 766 765 764 762 762 760 759 758 756 755
774 775 777 777 778 780 781 782 782 783 784 784 785 786 786 787 787 787 787 788 788 788 788 788 788 788 788 787 787 786 786 785 785 784 784 783 783 782 782 781 780 779 778 777 777 776 776 775 774 774 773 772 771 770 769 768 767 766 765 764 763 762 761 760 759 758 756 755 753
775 776 777 777 779 780 781 782 782 783 784 784 785 785 786 786 787 787 787 787 788 788 788 788 787 787 787 787 786 786 785 785 784 784 783 782 782 781 781 780 779 778 777 777 776 775 775 774 773 772 772 771 770 769 768 767 766 765 764 763 762 761 760 759 758 756 755 754 752
775 776 777 778 779 780 781 782 782 783 784 784 785 785 786 786 787 787 787 787 787 787 787 787 787 787 786 786 785 785 784 784 784 783 782 782 781 780 779 779 778 777 776 776 775 774 774 773 772 772 771 770 769 767 767 766 765 764 763 762 761 760 759 758 757 755 753 752 751
775 776 777 778 779 780 781 782 782 783 784 784 785 785 786 786 786 787 787 787 787 787 787 787 786 786 786 785 785 784 784 783 783 782 782 781 780 779 778 778 777 776 775 775 774 773 773 772 771 770 769 768 767 766 765 764 763 762 761 760 759 758 757 756 755 753 752 750 749
776 777 777 778 779 780 781 782 782 783 784 784 785 785 786 786 786 787 787 787 787 787 787 786 786 786 785 785 784 784 783 783 782 782 781 780 779 778 777 777 776 775 775 774 773 772 772 771 770 769 768 767 766 765 764 763 762 761 760 759 758 757 756 755 753 752 750 749 748
776 777 778 779 780 781 781 782 782 783 783 784 785 785 785 786 786 787 787 787 787 786 786 786 785 785 785 784 784 783 783 782 781 781 780 779 778 777 776 776 775 774 774 773 772 772 771 770 769 768 767 766 765 763 762 762 760 759 758 757 757 755 754 753 751 750 748 747 747
776 777 778 779 780 781 782 782 782 783 783 784 784 785 785 786 786 786 786 786 786 786 785 785 785 784 784 783 783 783 782 782 781 780 779 778 777 776 776 775 774 773 773 772 771 771 770 769 768 767 766 764 763 762 761 760 759 758 757 756 755 754 752 751 749 748 747 746 745
777 777 778 779 780 781 782 782 782 783 783 784 785 785 785 786 786 786 786 785 785 785 785 784 784 784 783 783 782 782 782 781 780 779 778 777 777 776 775 774 773 773 772 772 771 770 769 768 767 766 765 763 762 761 760 759 758 757 756 755 753 752 751 749 747 747 746 745 745
777 778 779 779 780 781 781 782 782 783 784 784 785 785 785 785 785 785 785 785 785 785 784 784 784 783 783 782 782 781 781 780 779 778 777 777 776 775 775 773 773 772 771 771 770 769 768 767 766 765 764 763 762 760 759 758 757 756 755 753 752 750 748 747 746 745 745 744 744
777 778 779 779 780 781 781 782 782 783 784 784 784 785 785 785 785 785 785 785 784 784 784 784 783 783 782 782 781 780 780 779 778 778 777 776 776 775 774 773 772 771 771 770 769 768 767 766 765 764 763 762 761 759 758 757 756 754 753 752 750 748 747 746 745 745 744 743 742
777 778 779 780 780 781 782 782 783 783 784 784 784 784 784 785 785 785 785 784 784 784 783 783 783 782 782 781 780 779 779 778 777 777 777 776 775 774 773 772 772 771 770 769 768 767 766 765 764 763 762 761 760 759 757 756 755 753 752 751 749 747 746 745 744 744 743 742 741
Wind_Speed
33 35 35 34 33 32 30 28 26 24 22 20 19 18 17 16 15 15 13 12 11 10 10 9 9 8 8 7 6 5 4 3 2 2 2 2 2 3 3 3 4 4 5 6 6 7 7 7 8 8 8 8 8 8 9 9 10 11 11 11 12 12 13 13 13 13 13 13 13
34 35 34 34 32 31 29 27 25 22 20 18 17 16 16 15 15 15 14 12 10 10 9 10 9 8 8 7 5 4 3 3 2 2 2 2 2 3 3 4 4 5 5 6 6 7 7 8 8 8 8 8 9 9 9 10 11 11 11 12 12 12 12 12 13 13 13 13 13
34 34 34 33 31 29 27 25 23 21 20 18 16 16 15 15 15 14 13 12 10 9 9 10 9 8 7 6 5 4 3 3 2 2 2 2 2 3 3 4 5 5 6 6 7 7 8 8 8 9 9 9 9 10 10 11 11 12 12 12 12 12 12 12 12 12 13 13 13
33 33 33 31 30 28 26 24 22 21 19 18 17 16 16 15 14 14 13 12 11 10 10 10 9 8 7 6 5 4 3 2 2 1 2 2 3 3 4 4 5 5 6 6 7 7 8 8 9 9 10 10 10 11 11 11 12 12 12 12 12 12 12 12 12 13 13 13 14
33 32 31 29 27 25 24 22 21 20 19 19 18 18 17 16 15 13 13 12 12 11 10 9 8 7 6 5 4 3 2 2 1 1 2 2 3 4 4 5 5 6 6 7 7 8 8 9 9 10 10 10 11 11 11 12 12 12 12 12 12 12 12 12 13 13 13 14 14
32 31 29 27 25 24 22 21 21 20 20 19 19 19 18 16 15 13 13 12 12 11 10 9 8 7 5 4 3 3 2 2 1 1 2 3 3 4 5 5 6 6 7 7 8 8 9 9 10 10 11 11 11 11 12 12 12 12 12 12 12 12 12 13 13 14 14 15 15
31 29 27 26 24 23 22 21 20 20 20 19 19 19 18 16 14 13 12 12 12 11 10 8 7 6 5 4 3 2 2 1 1 1 2 3 4 5 5 6 7 7 7 8 8 9 9 10 10 11 11 12 12 12 12 12 12 13 13 13 12 13 13 13 14 14 15 15 16
29 28 27 25 24 23 22 21 21 20 20 19 18 18 17 15 14 13 12 12 11 10 9 8 6 5 4 3 3 2 2 2 1 2 2 3 4 5 6 6 7 8 8 9 9 10 10 11 11 11 12 12 12 12 12 12 12 13 13 13 13 13 13 14 14 15 16 16 16
28 27 26 25 23 23 22 21 21 20 20 19 18 16 15 14 14 13 12 12 11 9 8 7 6 5 4 3 3 2 2 1 2 2 3 4 5 6 7 7 8 8 9 9 10 10 11 11 11 12 12 13 12 12 12 12 12 13 13 14 14 14 14 15 15 16 16 17 17
28 27 26 24 24 23 22 21 21 20 19 18 17 16 15 14 13 12 12 11 10 9 8 7 5 4 3 3 2 2 2 2 2 3 4 5 6 7 7 8 9 9 9 10 10 11 11 12 12 12 12 13 12 12 12 12 13 13 13 14 15 15 16 16 16 17 17 17 18
27 26 25 25 24 23 23 22 21 19 18 18 17 16 15 14 13 12 11 10 10 9 8 6 5 4 3 3 2 2 2 2 3 4 5 6 7 8 8 9 9 10 10 10 11 11 12 13 13 13 13 13 12 12 12 12 13 14 14 15 16 16 17 17 17 17 18 18 19
27 26 25 25 24 24 23 22 21 19 18 18 17 16 15 14 13 12 11 10 9 8 7 6 5 4 4 3 2 2 2 3 4 5 6 7 8 8 9 9 10 10 10 11 11 12 12 13 13 13 13 13 12 12 12 13 14 14 15 16 17 17 18 18 18 18 18 19 19
27 26 26 25 24 23 22 21 20 19 18 18 17 16 15 14 12 11 10 10 9 8 7 6 5 4 4 3 2 2 2 3 4 6 7 7 8 9 9 10 10 10 11 11 12 12 12 13 13 13 13 12 12 12 13 13 14 15 16 17 18 18 19 19 19 19 19 19 19
27 26 26 25 23 22 21 20 20 19 18 17 17 16 15 13 12 11 10 9 8 7 7 6 5 4 3 2 2 2 3 4 5 6 7 8 9 9 9 10 10 10 11 11 12 12 12 12 12 12 12 12 12 13 13 14 15 16 17 17 18 19 19 19 19 19 19 19 20
27 26 25 24 22 21 20 20 19 18 18 17 16 15 14 13 12 10 9 9 8 7 7 6 5 4 3 2 1 2 3 5 6 7 8 8 9 9 10 10 10 11 11 12 12 12 12 12 11 11 12 12 13 13 14 15 15 16 17 17 18 19 19 19 19 19 19 20 20
26 25 23 22 21 21 20 19 19 18 18 17 16 15 14 13 11 10 9 8 8 7 7 6 5 4 2 1 2 3 4 6 7 8 8 9 9 9 10 10 11 11 12 12 12 12 12 11 11 11 11 12 13 14 15 15 16 16 17 17 18 18 19 19 19 19 19 20 20
25 24 22 21 21 20 19 19 18 18 17 16 15 14 13 12 11 10 9 8 8 7 7 6 4 3 2 1 2 4 5 7 7 8 8 9 9 9 10 10 11 11 12 12 13 12 12 11 10 11 11 12 13 14 15 16 16 17 17 18 18 18 18 19 19 19 20 20 21
24 22 21 20 20 19 19 18 18 17 17 16 15 14 12 11 10 10 9 8 8 7 6 5 4 2 2 2 3 5 6 7 8 8 8 9 9 9 10 10 11 11 12 12 12 12 12 11 11 11 12 13 14 15 15 16 17 17 18 18 18 18 18 18 19 19 20 21 21
23 22 21 20 19 18 18 18 18 17 16 15 14 13 12 10 10 9 9 8 7 6 5 4 3 2 2 3 4 6 6 7 8 8 8 8 9 9 10 10 11 11 12 12 12 12 12 11 11 12 13 14 14 15 16 16 17 18 18 18 18 18 18 18 19 19 20 20 21
22 21 20 19 18 18 18 17 17 16 15 14 13 12 11 10 10 9 9 8 7 6 4 3 2 2 3 4 5 6 7 7 7 7 8 8 8 9 10 10 11 11 12 12 12 12 12 12 12 13 14 14 15 15 16 17 17 18 18 18 17 17 18 18 19 20 20 20 20
21 20 19 18 18 18 17 17 16 15 14 13 12 12 11 10 9 9 8 7 6 5 4 2 2 2 3 5 5 6 7 7 7 7 8 8 8 9 10 11 11 12 12 12 12 12 12 12 13 14 14 15 15 16 16 17 18 18 18 17 17 17 18 19 20 20 20 19 19
21 20 19 18 18 17 17 16 15 14 14 13 12 11 11 10 9 8 7 6 5 4 3 2 2 3 4 5 6 6 7 7 7 7 8 8 9 9 10 11 11 12 12 13 13 13 13 13 13 14 14 15 15 16 17 17 18 18 17 17 17 18 19 19 20 20 19 19 19
21 20 19 18 17 17 16 15 15 14 13 13 12 11 10 10 9 8 7 5 4 3 2 2 3 4 5 6 6 6 7 7 7 7 8 8 9 10 10 11 12 12 13 14 14 14 14 14 14 14 15 15 16 16 17 17 17 17 17 17 18 18 19 20 20 20 19 18 18
20 19 19 18 17 16 16 15 14 14 13 12 11 11 10 9 8 7 6 5 3 2 2 2 3 4 5 6 6 7 7 7 8 8 9 9 10 10 11 12 12 13 14 14 14 13 13 13 14 14 15 15 16 16 17 17 17 17 17 17 18 19 20 21 21 20 19 19 18
20 19 18 17 17 16 15 15 14 13 13 12 11 10 9 8 7 6 5 4 3 2 2 3 3 4 5 6 6 7 7 8 9 10 10 11 11 11 12 13 13 14 14 15 14 13 12 13 13 14 15 15 16 16 17 17 16 16 16 17 18 20 21 21 21 20 20 19 19
20 19 18 17 16 16 15 14 14 13 12 11 10 9 8 7 6 5 4 3 2 2 2 3 4 4 5 6 6 7 8 8 9 10 11 12 12 13 13 14 14 15 15 15 14 13 12 13 13 14 14 15 16 17 17 17 16 16 17 18 18 19 20 21 22 22 21 20 20
19 19 18 17 16 16 15 14 13 12 12 10 9 8 7 6 5 4 3 2 2 2 2 3 4 5 6 6 7 8 8 9 10 11 12 12 13 14 14 15 15 15 15 15 14 13 13 14 14 14 14 15 16 17 17 17 16 17 17 18 18 19 20 21 22 22 22 22 22
19 18 18 17 16 15 15 14 13 12 11 10 9 7 6 5 4 3 2 2 1 1 2 3 5 5 6 7 8 9 9 10 11 12 12 13 13 14 15 15 15 15 15 15 14 13 13 14 14 14 15 15 16 16 17 17 17 17 18 18 19 19 20 20 21 22 23 23 23
19 18 18 17 16 15 14 13 12 11 10 9 7 6 5 4 3 2 1 1 1 2 3 5 5 6 7 8 9 10 10 11 12 13 13 14 14 14 15 15 15 15 15 15 14 13 14 14 14 15 15 15 16 16 17 17 17 18 18 19 19 19 20 21 22 23 23 24 24
18 18 17 17 16 15 14 12 11 10 9 7 6 5 4 3 2 1 1 1 2 3 5 6 6 7 8 9 10 11 12 12 13 13 14 14 15 15 15 15 15 15 15 15 14 14 14 15 15 15 15 15 16 16 17 17 18 19 19 19 19 20 20 21 22 23 24 25 25
18 18 17 16 16 15 13 12 10 9 8 6 5 4 3 2 2 1 1 2 3 4 5 6 7 8 9 10 11 12 13 13 13 14 14 15 15 15 15 15 15 15 15 15 14 14 15 15 15 15 16 16 16 16 17 18 19 19 20 20 20 20 20 21 23 24 25 25 26
17 17 16 16 15 14 12 11 9 8 7 5 4 4 3 3 2 2 2 3 4 5 6 7 8 9 10 11 12 13 13 14 14 14 14 14 15 15 15 15 15 15 15 14 14 14 15 15 16 16 16 16 16 17 18 19 20 20 20 20 20 20 21 22 23 24 25 26 27
17 16 16 15 14 13 11 10 8 7 6 5 4 4 3 3 2 2 3 4 5 6 7 9 10 11 12 12 13 14 14 14 14 14 14 14 15 15 16 15 15 15 15 14 14 15 15 16 16 17 17 17 17 18 19 20 20 21 21 20 20 20 21 23 24 25 26 27 27
16 16 15 14 13 12 11 9 8 7 6 5 5 4 4 3 3 3 4 5 6 7 8 9 10 11 12 13 13 14 14 14 14 14 14 15 15 15 16 16 16 15 15 14 14 15 16 16 17 17 17 17 18 18 19 20 21 21 21 20 20 21 22 23 24 26 26 27 27
15 15 15 14 13 12 10 9 8 7 6 6 5 5 4 3 3 4 5 6 7 8 9 10 10 11 12 13 13 14 14 15 15 14 15 15 15 16 16 16 16 15 15 15 15 15 16 17 17 18 18 18 19 19 20 21 21 21 21 20 21 22 23 24 25 26 26 26 26
14 14 14 13 12 11 10 9 8 7 6 6 6 5 4 4 4 4 5 6 7 8 9 10 11 12 13 13 14 14 14 14 15 15 15 15 15 16 16 16 16 16 15 15 15 16 17 17 18 18 19 19 20 20 21 21 21 21 21 21 21 22 24 25 25 25 25 24 23
13 13 13 13 12 11 10 9 8 7 7 6 5 5 4 4 5 5 6 7 8 9 10 11 12 13 13 14 14 14 14 14 14 14 15 15 15 16 16 17 17 16 16 16 16 17 17 18 18 19 19 19 20 21 21 21 21 20 21 21 22 23 24 25 25 24 22 20 18
12 12 12 12 11 11 9 8 8 7 7 6 5 5 4 5 6 6 7 8 9 10 11 12 12 13 14 14 14 14 14 14 14 14 15 15 15 16 16 17 17 17 16 16 17 17 17 18 19 19 19 20 21 21 21 21 20 20 21 22 23 24 24 24 23 21 18 15 14
12 11 11 11 11 10 9 8 8 7 6 6 5 5 5 6 7 7 8 9 9 10 11 12 12 13 13 14 14 14 14 14 14 14 14 15 15 15 16 16 17 17 17 17 17 17 18 18 19 19 19 20 20 21 20 20 20 20 21 22 24 24 24 22 19 16 14 14 15
12 11 11 11 10 10 9 8 8 7 6 5 5 6 6 7 7 8 8 9 9 10 11 12 12 13 13 14 15 15 15 15 14 14 14 15 15 15 15 16 17 17 17 17 18 18 18 19 19 19 19 20 20 20 19 19 20 21 22 23 23 23 22 18 15 13 14 17 20
12 11 11 10 10 9 8 8 7 6 5 5 6 6 7 7 7 8 8 9 10 10 11 12 12 13 13 14 15 15 16 15 15 15 15 15 15 15 16 16 17 18 18 18 18 18 18 19 19 19 19 19 20 19 19 19 20 21 22 23 23 21 18 15 14 15 18 21 24
Wind_Direction
173 171 169 168 168 168 168 167 167 167 166 166 166 165 163 159 155 151 149 147 143 139 134 131 126 123 121 120 118 115 111 108 101 90 71 51 34 20 8 359 350 347 345 344 343 343 344 345 346 348 351 354 356 357 357 357 358 358 358 358 358 358 357 357 356 355 352 349 346
172 171 170 169 169 169 168 166 166 165 166 165 164 162 160 158 153 150 149 148 145 140 135 130 127 124 122 121 120 118 116 114 106 90 64 42 23 10 0 356 350 346 344 344 343 343 344 344 344 346 348 349 351 352 353 353 353 353 353 354 355 355 355 355 354 352 349 345 342
173 172 171 170 169 169 167 166 165 165 165 164 163 161 159 157 154 150 148 146 144 140 135 129 127 126 125 124 125 126 123 116 104 81 53 33 16 7 0 356 353 350 348 345 344 344 344 344 344 344 345 346 348 349 350 351 350 350 350 351 351 352 353 352 351 349 346 342 339
173 172 171 171 171 170 169 167 165 165 165 164 162 161 159 157 154 151 148 146 143 139 133 130 128 128 129 128 129 129 128 119 97 66 41 26 15 8 3 357 355 353 351 348 346 346 345 345 345 344 345 346 347 349 349 349 348 347 347 348 349 350 350 350 349 346 342 339 336
174 174 173 173 173 172 171 169 166 165 164 162 161 160 159 157 155 152 149 146 141 136 133 132 131 131 132 133 132 130 126 115 86 50 32 24 18 10 4 359 356 354 351 348 347 346 346 345 345 344 345 345 347 348 347 345 344 344 344 346 348 348 349 348 346 344 340 336 332
175 175 175 175 174 173 171 169 167 164 163 162 161 160 159 158 157 154 149 145 140 136 135 135 135 136 135 135 134 129 120 103 75 41 28 22 16 10 5 1 356 353 350 348 347 346 345 345 344 344 344 345 347 347 346 344 343 341 341 344 346 348 348 347 345 341 337 333 330
177 177 177 177 176 174 172 169 166 164 162 162 162 160 159 158 156 152 147 143 140 138 137 137 138 138 137 135 133 126 115 96 68 38 21 18 11 6 2 358 354 351 349 347 346 345 344 344 344 344 344 344 346 346 345 344 342 341 341 343 345 347 347 345 343 339 336 332 329
178 179 179 178 177 174 171 168 165 163 162 162 162 161 159 157 154 149 145 142 139 138 138 140 141 140 139 138 133 125 115 94 67 36 17 9 4 360 356 352 350 348 347 345 345 345 344 343 344 344 343 343 344 345 344 343 342 342 343 344 345 346 346 344 341 338 334 330 327
177 178 179 178 176 173 170 167 165 163 161 160 159 158 156 154 150 147 144 141 139 140 141 141 141 142 141 139 133 125 110 84 54 31 14 2 357 353 350 347 347 346 346 344 344 344 343 343 343 343 343 343 343 344 344 343 343 344 344 344 344 344 343 342 339 336 333 329 326
176 177 176 174 172 169 166 164 163 162 159 157 155 153 151 149 146 144 142 140 141 142 141 140 140 141 141 138 132 119 97 62 34 17 7 358 352 348 346 344 344 344 344 344 344 343 342 341 341 342 342 342 343 344 344 344 344 345 345 344 343 342 341 340 338 336 332 328 325
175 174 172 170 167 165 163 160 159 158 156 153 151 148 146 144 143 141 141 142 143 141 139 138 140 141 141 137 126 108 75 40 18 7 360 354 349 346 344 343 342 342 343 343 342 342 341 340 340 340 341 342 343 345 346 346 346 345 345 344 342 340 339 338 337 335 331 328 324
171 169 167 165 163 161 160 158 156 155 153 149 147 145 144 142 142 142 142 144 143 140 138 139 140 140 139 132 117 93 51 22 7 357 351 348 346 344 343 342 341 342 342 342 342 342 341 340 339 339 340 342 344 346 347 348 347 345 344 343 341 339 338 337 335 333 330 327 323
166 163 161 160 159 159 158 155 153 151 149 147 145 144 143 141 141 142 143 143 142 140 140 141 141 140 133 124 106 71 28 7 355 349 345 342 341 341 341 341 341 341 342 342 342 342 341 341 340 341 341 343 345 347 349 348 347 346 344 342 340 338 336 335 334 332 329 326 323
160 159 157 157 157 157 155 153 150 149 147 145 144 144 142 141 141 142 143 144 142 141 141 141 141 137 128 114 87 40 9 354 347 343 341 340 339 340 341 341 340 340 341 341 341 342 342 343 343 343 344 345 346 348 348 348 347 345 343 340 338 336 335 333 332 330 329 326 323
156 155 155 155 155 155 153 150 148 147 146 144 144 144 143 140 140 143 145 144 143 142 142 140 136 131 124 102 50 11 353 346 342 339 339 339 339 340 341 340 340 339 339 340 341 342 343 344 345 346 347 347 348 348 348 347 344 342 340 338 336 334 333 332 331 330 328 326 323
152 153 153 154 154 153 151 149 148 146 146 144 144 144 142 141 142 144 146 145 143 143 141 137 130 124 112 79 17 353 345 341 338 338 338 340 341 341 341 341 340 339 338 339 340 341 343 345 347 349 349 349 348 348 346 344 342 339 337 335 334 332 331 331 330 328 327 325 323
151 151 152 153 153 152 150 148 147 146 145 144 144 143 143 142 144 145 145 143 143 142 138 133 126 115 94 48 2 346 341 340 339 340 341 342 343 343 342 341 341 339 338 338 339 340 342 344 348 350 351 351 348 346 344 341 339 336 334 333 332 331 330 329 328 327 325 324 322
150 150 152 153 152 151 149 148 147 146 145 144 143 143 144 145 145 145 143 141 140 138 133 128 122 109 67 22 359 346 342 341 343 344 345 345 345 343 342 342 340 339 338 338 338 339 340 343 347 350 351 350 348 345 341 338 335 333 332 331 330 329 328 327 326 325 324 322 321
150 151 152 152 151 150 148 147 146 145 144 144 144 144 144 145 146 145 143 140 138 133 128 122 113 88 32 4 354 348 344 344 346 347 348 348 346 344 342 341 340 339 339 338 339 339 340 343 347 350 350 348 345 341 338 335 332 331 330 329 328 327 327 326 325 324 322 321 320
150 151 152 151 150 148 147 146 145 144 144 144 145 144 143 143 144 144 140 136 133 129 125 116 97 57 16 359 352 349 348 347 348 349 350 349 347 345 343 341 339 338 338 338 339 339 341 345 348 350 349 345 341 337 334 332 330 329 327 327 326 326 326 325 324 323 322 321 320
150 150 150 150 148 147 146 145 145 144 144 144 144 143 142 142 142 139 134 130 128 124 119 105 65 27 7 357 353 352 352 350 350 351 350 349 348 346 343 340 338 337 336 337 338 340 343 347 349 349 346 341 337 334 331 329 328 326 325 325 324 324 325 326 325 324 323 322 322
149 149 148 148 147 146 145 144 144 144 143 142 141 140 140 139 137 133 128 125 122 116 105 72 26 7 358 353 351 351 351 351 351 350 350 349 348 346 343 340 337 336 335 336 338 340 344 348 348 345 340 336 333 331 329 328 326 324 323 323 323 325 326 327 327 326 325 324 324
148 147 147 146 145 144 144 143 143 142 141 139 138 138 137 134 130 126 122 119 114 105 80 38 10 359 353 349 347 346 346 346 347 348 347 347 347 345 342 340 338 337 337 337 339 343 346 345 342 338 334 331 330 328 327 326 324 322 321 322 324 326 328 329 329 328 327 326 327
147 146 145 145 144 144 143 143 142 140 139 136 136 135 133 129 125 122 118 114 108 90 55 21 4 356 352 349 346 344 341 341 342 343 344 344 344 344 342 340 339 338 338 338 342 345 344 338 334 331 330 328 327 326 325 323 321 320 321 322 325 328 330 331 330 329 328 328 328
147 146 145 145 144 144 143 143 141 138 136 135 134 132 129 125 122 120 117 113 102 74 37 11 359 355 353 353 349 346 343 341 341 341 341 341 341 341 341 340 340 339 338 338 343 343 337 330 328 328 327 326 325 324 323 321 320 319 320 323 326 329 331 331 331 330 328 328 328
147 146 145 145 144 143 142 141 139 137 135 134 133 130 126 123 121 120 117 110 90 54 18 1 356 354 353 353 351 349 348 347 345 344 342 341 340 340 339 339 339 338 337 339 342 340 334 328 328 327 326 325 324 323 321 319 318 319 321 324 327 330 331 330 330 329 328 327 326
147 145 145 145 143 141 140 139 138 136 134 133 131 127 124 123 124 122 118 105 77 35 5 355 354 354 353 350 351 353 354 353 351 348 345 343 341 340 339 338 338 337 337 338 340 338 333 329 328 328 327 325 323 321 319 318 318 319 321 324 327 329 329 329 328 327 327 326 325
146 145 144 143 141 139 137 137 136 134 133 131 129 126 125 125 124 123 115 98 59 17 0 359 355 352 350 350 353 355 357 355 354 351 347 344 342 341 339 339 338 337 336 337 339 336 332 329 328 328 326 325 322 320 318 317 318 319 322 324 325 327 327 327 327 326 325 325 324
145 144 143 141 138 137 137 136 134 133 131 129 127 126 126 126 125 123 112 80 21 6 5 3 355 351 351 354 356 357 357 357 354 351 347 344 342 341 340 339 338 337 336 337 339 336 331 329 328 327 326 324 321 318 317 316 318 320 322 323 324 325 326 325 325 324 324 323 323
145 143 142 139 137 136 135 134 133 131 130 129 127 127 128 131 130 126 90 26 11 8 5 359 355 353 355 357 356 357 357 357 354 351 348 344 342 340 340 339 338 337 337 339 340 336 332 329 328 326 325 323 320 318 317 317 319 320 322 322 323 324 324 324 323 323 322 321 321
144 142 140 138 136 135 134 133 132 131 130 129 130 132 135 136 125 97 46 22 16 8 1 356 355 355 356 356 356 356 356 354 353 351 348 345 342 340 339 339 339 338 339 341 340 336 332 329 327 325 324 322 320 318 317 318 319 320 321 321 322 322 323 322 321 320 320 319 318
143 142 140 138 136 134 133 133 132 132 132 133 135 137 136 126 103 70 37 18 10 5 1 357 355 355 355 354 355 354 353 353 353 351 348 345 342 339 339 339 340 340 341 342 340 336 331 329 327 325 323 322 320 318 318 318 319 320 320 320 321 321 322 321 319 318 318 317 315
143 142 141 138 136 134 133 132 132 134 136 137 137 131 123 110 92 63 35 17 8 4 2 359 357 356 355 354 353 352 352 351 351 349 347 344 341 339 339 340 341 342 342 342 339 335 331 329 327 325 323 322 320 319 318 319 319 319 319 320 320 321 320 319 318 316 315 314 313
143 142 141 138 136 134 132 131 133 136 138 136 129 122 111 97 79 55 34 19 11 7 4 1 360 358 356 353 352 351 350 349 348 347 345 343 340 339 339 340 341 342 342 342 339 334 331 329 327 326 324 323 321 320 320 320 320 319 319 320 320 320 319 318 316 315 314 313 312
144 143 141 138 135 134 132 131 134 136 135 128 120 112 99 79 59 39 27 17 11 7 4 2 359 356 354 352 351 350 349 347 346 345 344 342 340 339 339 339 340 341 342 341 339 335 331 329 328 326 325 323 322 321 321 321 320 320 320 320 319 318 317 316 315 314 313 312 311
146 144 140 137 135 133 133 134 136 136 131 121 111 100 85 65 46 29 19 12 7 3 1 359 356 353 352 351 350 350 349 347 346 344 343 342 341 340 339 339 340 341 342 341 340 335 332 330 328 327 325 324 323 322 322 321 320 320 320 319 318 317 316 315 314 313 312 311 311
147 146 142 138 135 133 134 136 136 132 123 112 100 86 70 54 39 26 15 7 2 359 357 354 353 351 349 349 349 349 348 347 345 344 344 343 343 342 340 340 340 341 341 341 340 337 333 330 328 327 326 325 324 323 323 322 321 320 319 318 316 315 315 313 312 310 310 311 314
146 146 144 139 135 134 134 134 130 122 111 100 89 76 60 44 33 24 14 6 0 357 354 352 351 350 348 345 344 344 345 345 345 345 345 344 344 343 342 340 340 340 340 340 339 337 333 330 328 328 327 325 324 324 323 322 320 319 318 317 315 314 313 311 309 308 309 315 322
142 143 143 139 136 134 132 127 118 109 99 90 80 67 52 39 30 22 13 6 360 355 352 350 350 348 345 342 340 339 340 342 343 344 345 345 345 344 342 340 339 338 339 339 339 337 334 330 328 328 327 326 325 324 323 321 320 319 318 317 315 313 311 309 308 310 316 325 327
136 138 138 136 133 131 127 119 110 101 91 82 69 57 44 34 27 19 11 3 358 353 349 348 346 345 343 341 338 336 336 338 340 343 345 345 345 344 342 340 338 337 338 339 339 337 333 330 328 328 327 326 325 324 323 321 320 319 318 317 314 312 310 309 312 320 327 328 326
132 133 132 130 128 124 119 111 103 95 85 71 58 47 37 28 22 14 7 0 355 350 347 345 343 342 341 340 338 336 336 337 340 342 344 345 345 344 342 340 338 337 338 339 340 337 333 329 328 328 327 326 326 324 323 322 321 319 318 316 314 312 312 316 323 328 329 327 324